| time (UTC) | temp F | wind direction | speed MPH | gust MPH | rain 1hr in | rain 24hr in | rain mn in | humidity % | barometer mb |
| 20260903043504 | 78 | 95 | 3.0 | 3.0 | 0.00 | 0.00 | 0.00 | 88 | 1013.9 |
| 20260903043006 | 78 | 91 | 3.0 | 3.0 | 0.00 | 0.00 | 0.00 | 88 | 1013.9 |
| 20260903042006 | 78 | 99 | 3.0 | 5.0 | 0.00 | 0.00 | 0.00 | 87 | 1013.8 |
| 20260903041506 | 78 | 108 | 2.0 | 3.0 | 0.00 | 0.00 | 0.00 | 87 | 1013.8 |
| 20260903041006 | 78 | 98 | 3.0 | 3.0 | 0.00 | 0.00 | 0.00 | 87 | 1013.9 |
| 20260903040008 | 78 | 104 | 4.0 | 6.0 | 0.00 | 0.00 | 0.00 | 87 | 1013.9 |
| 20260903035506 | 78 | 95 | 4.0 | 6.0 | 0.00 | 0.00 | 0.00 | 87 | 1013.9 |
| 20260903035006 | 78 | 96 | 3.0 | 3.0 | 0.00 | 0.00 | 0.00 | 87 | 1014.0 |
| 20260903034006 | 79 | 114 | 2.0 | 3.0 | 0.00 | 0.00 | 0.00 | 84 | 1013.9 |
| 20260903031505 | 81 | 157 | 3.0 | 6.0 | 0.00 | 0.00 | 0.00 | 81 | 1013.9 |
| 20260903031005 | 81 | 172 | 6.0 | 9.0 | 0.00 | 0.00 | 0.00 | 82 | 1013.9 |
| 20260903025506 | 80 | 342 | 1.0 | 2.0 | 0.00 | 0.00 | 0.00 | 85 | 1014.0 |
| 20260903025006 | 80 | 355 | 2.0 | 2.0 | 0.00 | 0.00 | 0.00 | 85 | 1014.0 |
| 20260903024505 | 80 | 355 | 2.0 | 3.0 | 0.00 | 0.00 | 0.00 | 85 | 1014.1 |
| 20260903024005 | 80 | 353 | 3.0 | 3.0 | 0.00 | 0.00 | 0.00 | 85 | 1014.2 |
| 20260903022506 | 81 | 313 | 2.0 | 3.0 | 0.00 | 0.00 | 0.00 | 84 | 1013.9 |
| 20260903022006 | 82 | 309 | 1.0 | 2.0 | 0.00 | 0.00 | 0.00 | 82 | 1013.9 |
| 20260903021506 | 82 | 254 | 1.0 | 3.0 | 0.00 | 0.00 | 0.00 | 81 | 1013.8 |
| 20260903020506 | 83 | 201 | 4.0 | 7.0 | 0.00 | 0.00 | 0.00 | 80 | 1013.5 |
| 20260903012506 | 82 | 173 | 5.0 | 9.0 | 0.00 | 0.00 | 0.00 | 84 | 1012.8 |
| 20260903012006 | 82 | 172 | 3.0 | 5.0 | 0.00 | 0.00 | 0.00 | 85 | 1012.8 |
| 20260903011506 | 82 | 173 | 3.0 | 7.0 | 0.00 | 0.00 | 0.00 | 85 | 1012.7 |
| 20260903011006 | 82 | 174 | 3.0 | 5.0 | 0.00 | 0.00 | 0.00 | 85 | 1012.7 |
| 20260903010005 | 82 | 160 | 4.0 | 5.0 | 0.00 | 0.00 | 0.00 | 85 | 1012.5 |
| 20260903003506 | 83 | 171 | 1.0 | 2.0 | 0.00 | 0.00 | 0.00 | 85 | 1013.0 |
| 20260903003005 | 83 | 171 | 2.0 | 3.0 | 0.00 | 0.00 | 0.00 | 86 | 1013.1 |
| 20260903002006 | 83 | 158 | 5.0 | 6.0 | 0.00 | 0.00 | 0.00 | 84 | 1012.9 |
| 20260903001505 | 84 | 155 | 3.0 | 3.0 | 0.00 | 0.00 | 0.00 | 83 | 1012.9 |
| 20260903001005 | 84 | 196 | 2.0 | 3.0 | 0.00 | 0.00 | 0.00 | 82 | 1013.1 |
| 20260902235005 | 85 | 202 | 2.0 | 3.0 | 0.00 | 0.00 | 0.00 | 82 | 1013.3 |
| 20260902233505 | 86 | 186 | 2.0 | 3.0 | 0.00 | 0.00 | 0.00 | 78 | 1013.3 |
| 20260902233006 | 87 | 247 | 2.0 | 2.0 | 0.00 | 0.00 | 0.00 | 75 | 1013.4 |
| 20260902231005 | 88 | 268 | 1.0 | 2.0 | 0.00 | 0.00 | 0.00 | 73 | 1013.7 |
| 20260902230005 | 88 | 268 | 1.0 | 2.0 | 0.00 | 0.00 | 0.00 | 72 | 1013.5 |
| 20260902225505 | 88 | 268 | 1.0 | 2.0 | 0.00 | 0.00 | 0.00 | 71 | 1013.6 |
| 20260902225006 | 88 | 250 | 1.0 | 3.0 | 0.00 | 0.00 | 0.00 | 71 | 1013.6 |
| 20260902224505 | 88 | 247 | 2.0 | 3.0 | 0.00 | 0.00 | 0.00 | 69 | 1013.5 |
| 20260902224005 | 89 | 245 | 2.0 | 3.0 | 0.00 | 0.00 | 0.00 | 69 | 1013.4 |
| 20260902222505 | 89 | 202 | 4.0 | 7.0 | 0.00 | 0.00 | 0.00 | 67 | 1013.0 |
| 20260902222006 | 90 | 180 | 4.0 | 8.0 | 0.00 | 0.00 | 0.00 | 66 | 1013.0 |
| 20260902221005 | 90 | 200 | 2.0 | 3.0 | 0.00 | 0.00 | 0.00 | 65 | 1013.4 |
| 20260902215505 | 90 | 223 | 2.0 | 3.0 | 0.00 | 0.00 | 0.00 | 63 | 1013.5 |
| 20260902215005 | 90 | 232 | 2.0 | 3.0 | 0.00 | 0.00 | 0.00 | 60 | 1013.5 |
| 20260902211505 | 94 | 288 | 3.0 | 7.0 | 0.00 | 0.00 | 0.00 | 55 | 1013.7 |
| 20260902210005 | 96 | 292 | 4.0 | 8.0 | 0.00 | 0.00 | 0.00 | 52 | 1013.7 |
| 20260902205005 | 97 | 301 | 4.0 | 7.0 | 0.00 | 0.00 | 0.00 | 52 | 1013.9 |
| 20260902204504 | 96 | 311 | 5.0 | 8.0 | 0.00 | 0.00 | 0.00 | 52 | 1013.9 |
| 20260902203006 | 94 | 276 | 4.0 | 8.0 | 0.00 | 0.00 | 0.00 | 54 | 1013.9 |
| 20260902202005 | 94 | 236 | 6.0 | 9.0 | 0.00 | 0.00 | 0.00 | 53 | 1014.0 |
| 20260902200505 | 96 | 208 | 5.0 | 7.0 | 0.00 | 0.00 | 0.00 | 55 | 1013.9 |
| 20260902200005 | 95 | 192 | 4.0 | 8.0 | 0.00 | 0.00 | 0.00 | 54 | 1013.8 |
| 20260902194504 | 96 | 229 | 6.0 | 10.0 | 0.00 | 0.00 | 0.00 | 53 | 1014.2 |
| 20260902193005 | 96 | 242 | 6.0 | 13.0 | 0.00 | 0.00 | 0.00 | 56 | 1014.2 |
| 20260902192504 | 95 | 242 | 6.0 | 8.0 | 0.00 | 0.00 | 0.00 | 57 | 1014.3 |
| 20260902192005 | 95 | 213 | 5.0 | 12.0 | 0.00 | 0.00 | 0.00 | 55 | 1014.2 |
| 20260902191005 | 94 | 244 | 8.0 | 12.0 | 0.00 | 0.00 | 0.00 | 53 | 1014.3 |
| 20260902190005 | 94 | 212 | 8.0 | 13.0 | 0.00 | 0.00 | 0.00 | 56 | 1014.3 |
| 20260902185505 | 94 | 218 | 5.0 | 8.0 | 0.00 | 0.00 | 0.00 | 56 | 1014.2 |
| 20260902185004 | 93 | 208 | 8.0 | 13.0 | 0.00 | 0.00 | 0.00 | 53 | 1014.4 |
| 20260902184004 | 95 | 223 | 5.0 | 10.0 | 0.00 | 0.00 | 0.00 | 58 | 1014.4 |
| 20260902183505 | 94 | 253 | 7.0 | 12.0 | 0.00 | 0.00 | 0.00 | 54 | 1014.4 |
| 20260902181005 | 93 | 233 | 5.0 | 8.0 | 0.00 | 0.00 | 0.00 | 56 | 1014.6 |
| 20260902180505 | 93 | 251 | 7.0 | 12.0 | 0.00 | 0.00 | 0.00 | 57 | 1014.6 |
| 20260902173505 | 92 | 207 | 6.0 | 10.0 | 0.00 | 0.00 | 0.00 | 60 | 1014.9 |
| 20260902170505 | 90 | 205 | 4.0 | 10.0 | 0.00 | 0.00 | 0.00 | 64 | 1015.2 |
| 20260902170005 | 90 | 199 | 7.0 | 12.0 | 0.00 | 0.00 | 0.00 | 64 | 1015.1 |
| 20260902165005 | 89 | 213 | 6.0 | 12.0 | 0.00 | 0.00 | 0.00 | 67 | 1015.1 |
| 20260902164504 | 89 | 181 | 7.0 | 10.0 | 0.00 | 0.00 | 0.00 | 65 | 1015.3 |
| 20260902164005 | 89 | 195 | 5.0 | 7.0 | 0.00 | 0.00 | 0.00 | 66 | 1015.5 |
| 20260902163004 | 89 | 202 | 5.0 | 7.0 | 0.00 | 0.00 | 0.00 | 65 | 1015.4 |
| 20260902162505 | 89 | 227 | 3.0 | 7.0 | 0.00 | 0.00 | 0.00 | 67 | 1015.4 |
| 20260902162006 | 89 | 219 | 5.0 | 9.0 | 0.00 | 0.00 | 0.00 | 66 | 1015.3 |
| 20260902161005 | 87 | 202 | 6.0 | 10.0 | 0.00 | 0.00 | 0.00 | 69 | 1015.3 |
| 20260902155504 | 87 | 174 | 7.0 | 9.0 | 0.00 | 0.00 | 0.00 | 70 | 1015.2 |
| 20260902154504 | 87 | 213 | 3.0 | 7.0 | 0.00 | 0.00 | 0.00 | 71 | 1015.1 |
| 20260902154005 | 86 | 218 | 3.0 | 7.0 | 0.00 | 0.00 | 0.00 | 71 | 1015.0 |
| 20260902153004 | 86 | 243 | 4.0 | 7.0 | 0.00 | 0.00 | 0.00 | 72 | 1015.0 |
| 20260902152505 | 85 | 231 | 4.0 | 5.0 | 0.00 | 0.00 | 0.00 | 71 | 1015.0 |
| 20260902152005 | 85 | 224 | 2.0 | 3.0 | 0.00 | 0.00 | 0.00 | 73 | 1015.0 |
| 20260902150004 | 83 | 227 | 2.0 | 3.0 | 0.00 | 0.00 | 0.00 | 75 | 1015.0 |
| 20260902145504 | 82 | 187 | 2.0 | 5.0 | 0.00 | 0.00 | 0.00 | 76 | 1015.0 |
| 20260902144504 | 81 | 190 | 5.0 | 8.0 | 0.00 | 0.00 | 0.00 | 77 | 1015.0 |
| 20260902143504 | 82 | 181 | 5.0 | 7.0 | 0.00 | 0.00 | 0.00 | 77 | 1014.9 |
| 20260902143004 | 81 | 182 | 4.0 | 6.0 | 0.00 | 0.00 | 0.00 | 77 | 1014.9 |
| 20260902142504 | 81 | 181 | 3.0 | 6.0 | 0.00 | 0.00 | 0.00 | 78 | 1015.0 |
| 20260902142005 | 81 | 186 | 5.0 | 6.0 | 0.00 | 0.00 | 0.00 | 76 | 1015.0 |
| 20260902141504 | 81 | 184 | 3.0 | 6.0 | 0.00 | 0.00 | 0.00 | 77 | 1015.0 |
| 20260902141004 | 81 | 181 | 5.0 | 8.0 | 0.00 | 0.00 | 0.00 | 76 | 1015.1 |
| 20260902140504 | 80 | 194 | 3.0 | 5.0 | 0.00 | 0.00 | 0.00 | 78 | 1015.1 |
| 20260902140005 | 80 | 189 | 5.0 | 7.0 | 0.00 | 0.00 | 0.00 | 77 | 1015.1 |
| 20260902135504 | 80 | 168 | 5.0 | 8.0 | 0.00 | 0.00 | 0.00 | 77 | 1015.1 |
| 20260902135004 | 80 | 182 | 5.0 | 7.0 | 0.00 | 0.00 | 0.00 | 77 | 1015.1 |
| 20260902134504 | 80 | 189 | 3.0 | 5.0 | 0.00 | 0.00 | 0.00 | 79 | 1015.1 |
| 20260902134005 | 79 | 152 | 3.0 | 5.0 | 0.00 | 0.00 | 0.00 | 79 | 1015.1 |
| 20260902133004 | 78 | 154 | 3.0 | 5.0 | 0.00 | 0.00 | 0.00 | 81 | 1015.3 |
| 20260902132504 | 77 | 158 | 2.0 | 3.0 | 0.00 | 0.00 | 0.00 | 82 | 1015.5 |
| 20260902131504 | 76 | 194 | 1.0 | 3.0 | 0.00 | 0.00 | 0.00 | 84 | 1015.5 |
| 20260902131004 | 76 | 185 | 2.0 | 3.0 | 0.00 | 0.00 | 0.00 | 83 | 1015.5 |
| 20260902125005 | 76 | 152 | 3.0 | 3.0 | 0.00 | 0.00 | 0.00 | 83 | 1015.8 |
| 20260902124505 | 75 | 148 | 1.0 | 2.0 | 0.00 | 0.00 | 0.00 | 84 | 1015.9 |
| 20260902122004 | 72 | 218 | 2.0 | 3.0 | 0.00 | 0.00 | 0.00 | 89 | 1015.9 |
| 20260902121505 | 71 | 351 | 0.0 | 2.0 | 0.00 | 0.00 | 0.00 | 90 | 1015.7 |
| 20260902121005 | 71 | 351 | 0.0 | 2.0 | 0.00 | 0.00 | 0.00 | 89 | 1015.7 |
| 20260902115504 | 72 | 192 | 0.0 | 2.0 | 0.00 | 0.00 | 0.00 | 87 | 1015.9 |
| 20260902115004 | 72 | 192 | 1.0 | 3.0 | 0.00 | 0.00 | 0.00 | 87 | 1015.8 |
| 20260902114004 | 72 | 270 | 2.0 | 5.0 | 0.00 | 0.00 | 0.00 | 87 | 1016.0 |
| 20260902111004 | 71 | 150 | 3.0 | 3.0 | 0.00 | 0.00 | 0.00 | 88 | 1014.8 |
| 20260902110504 | 71 | 146 | 2.0 | 3.0 | 0.00 | 0.00 | 0.00 | 88 | 1014.8 |
| 20260902110007 | 71 | 163 | 3.0 | 3.0 | 0.00 | 0.00 | 0.00 | 88 | 1014.8 |
| 20260902105004 | 71 | 163 | 2.0 | 2.0 | 0.00 | 0.00 | 0.00 | 87 | 1014.8 |
| 20260902104004 | 71 | 163 | 2.0 | 3.0 | 0.00 | 0.00 | 0.00 | 87 | 1014.9 |
| 20260902103505 | 71 | 163 | 2.0 | 2.0 | 0.00 | 0.00 | 0.00 | 87 | 1014.9 |
| 20260902102504 | 71 | 163 | 2.0 | 3.0 | 0.00 | 0.00 | 0.00 | 87 | 1014.9 |
| 20260902101005 | 71 | 157 | 2.0 | 2.0 | 0.00 | 0.00 | 0.00 | 87 | 1014.9 |
| 20260902100504 | 71 | 154 | 1.0 | 3.0 | 0.00 | 0.00 | 0.00 | 87 | 1014.9 |
| 20260902100004 | 71 | 147 | 3.0 | 3.0 | 0.00 | 0.00 | 0.00 | 87 | 1014.8 |
| 20260902095504 | 71 | 151 | 2.0 | 3.0 | 0.00 | 0.00 | 0.00 | 87 | 1014.8 |
| 20260902092504 | 71 | 152 | 2.0 | 3.0 | 0.00 | 0.00 | 0.00 | 86 | 1015.1 |
| 20260902090504 | 72 | 162 | 2.0 | 2.0 | 0.00 | 0.00 | 0.00 | 85 | 1015.4 |
| 20260902085004 | 72 | 182 | 2.0 | 3.0 | 0.00 | 0.00 | 0.00 | 85 | 1015.4 |
| 20260902084504 | 72 | 184 | 1.0 | 2.0 | 0.00 | 0.00 | 0.00 | 85 | 1015.3 |
| 20260902083504 | 72 | 172 | 2.0 | 3.0 | 0.00 | 0.00 | 0.00 | 86 | 1015.1 |
| 20260902082504 | 72 | 181 | 1.0 | 2.0 | 0.00 | 0.00 | 0.00 | 85 | 1015.1 |
| 20260902082004 | 72 | 181 | 1.0 | 2.0 | 0.00 | 0.00 | 0.00 | 85 | 1015.1 |
| 20260902081504 | 72 | 181 | 1.0 | 2.0 | 0.00 | 0.00 | 0.00 | 85 | 1015.0 |
| 20260902081004 | 72 | 181 | 1.0 | 2.0 | 0.00 | 0.00 | 0.00 | 85 | 1014.9 |
| 20260902080004 | 73 | 181 | 2.0 | 3.0 | 0.00 | 0.00 | 0.00 | 85 | 1014.9 |
| 20260902075504 | 73 | 181 | 2.0 | 3.0 | 0.00 | 0.00 | 0.00 | 85 | 1014.8 |
| 20260902075004 | 73 | 208 | 1.0 | 3.0 | 0.00 | 0.00 | 0.00 | 84 | 1014.8 |
| 20260902074504 | 73 | 209 | 1.0 | 2.0 | 0.00 | 0.00 | 0.00 | 84 | 1014.9 |
| 20260902074004 | 73 | 198 | 1.0 | 2.0 | 0.00 | 0.00 | 0.00 | 85 | 1014.8 |
| 20260902073004 | 72 | 153 | 1.0 | 1.0 | 0.00 | 0.00 | 0.00 | 86 | 1014.7 |
| 20260902072504 | 72 | 153 | 1.0 | 2.0 | 0.00 | 0.00 | 0.00 | 86 | 1014.6 |
| 20260902072004 | 72 | 153 | 2.0 | 3.0 | 0.00 | 0.00 | 0.00 | 86 | 1014.4 |
| 20260902070504 | 73 | 169 | 1.0 | 3.0 | 0.00 | 0.00 | 0.00 | 85 | 1014.7 |
| 20260902070006 | 73 | 167 | 2.0 | 3.0 | 0.00 | 0.00 | 0.00 | 85 | 1014.7 |
| 20260902064504 | 73 | 190 | 1.0 | 3.0 | 0.00 | 0.00 | 0.00 | 85 | 1014.6 |
| 20260902062504 | 74 | 186 | 2.0 | 3.0 | 0.00 | 0.00 | 0.00 | 84 | 1014.8 |
| 20260902061004 | 74 | 188 | 2.0 | 5.0 | 0.00 | 0.00 | 0.00 | 84 | 1014.7 |
| 20260902060004 | 74 | 208 | 2.0 | 5.0 | 0.00 | 0.00 | 0.00 | 83 | 1014.8 |
| 20260902055503 | 75 | 217 | 3.0 | 5.0 | 0.00 | 0.00 | 0.00 | 83 | 1014.8 |
| 20260902054504 | 75 | 212 | 3.0 | 5.0 | 0.00 | 0.00 | 0.00 | 84 | 1014.7 |
| 20260902054004 | 75 | 186 | 4.0 | 8.0 | 0.00 | 0.00 | 0.00 | 84 | 1014.7 |
| 20260902053503 | 74 | 175 | 5.0 | 8.0 | 0.00 | 0.00 | 0.00 | 85 | 1014.7 |
| 20260902053003 | 74 | 182 | 5.0 | 7.0 | 0.00 | 0.00 | 0.00 | 85 | 1014.8 |
| 20260902052504 | 74 | 169 | 5.0 | 8.0 | 0.00 | 0.00 | 0.00 | 86 | 1014.8 |
| 20260902051503 | 74 | 166 | 3.0 | 6.0 | 0.00 | 0.00 | 0.00 | 87 | 1014.9 |
| 20260902051004 | 74 | 164 | 3.0 | 5.0 | 0.00 | 0.00 | 0.00 | 88 | 1014.9 |
| 20260902050504 | 74 | 163 | 2.0 | 3.0 | 0.00 | 0.00 | 0.00 | 87 | 1014.9 |
| 20260902050005 | 74 | 166 | 2.0 | 3.0 | 0.00 | 0.00 | 0.00 | 87 | 1015.0 |
| 20260902045503 | 75 | 179 | 2.0 | 3.0 | 0.00 | 0.00 | 0.00 | 87 | 1015.1 |
| 20260902045004 | 75 | 175 | 2.0 | 5.0 | 0.00 | 0.00 | 0.00 | 87 | 1015.0 |
| 20260902044504 | 75 | 184 | 2.0 | 3.0 | 0.00 | 0.00 | 0.00 | 88 | 1015.1 |